Погода в Василевичи

Погода в Василевичи : погода сейчас, прогноз погоды и архив. Всё, что Вы хотите узнать о погоде в Василевичи!

Хотите узнать прогноз погоды в Василевичи? Тогда Вам сюда: Погода в Василевичи

Поиск расширенной информации на нашем сайте:

Полезная информация:

Другие новости

Новости СМИ2

Главная страница сайта

Новости сайта

03.07.2017

Напоминаем, что на нашем специализированном сайте Метеоцентр.Азия вы можете получить высокодетализированные автоматические прогнозы погоды по пунктам России, СНГ и мира в авиационном формате (включающие направление и скорость ветра, видимость, явления погоды, количество и форму облачности, нижнюю и верхнюю границу облачности).

Рекомендуем:

Погода в Василевичи - сегодня

Время (UTC), дата Ветер
(°,м/с) 
Видим.   Явления Облачность Т
(°С)
Тd
(°С)
f(%) Тe
(°С)
Pmin
(гПа)
dP
(гПа)
Po
(мм)
O2
(г/м3)
Тmin Tmax R s Состояние
почвы
06 22.03.19 260 (З) 10 км    10/10 600 м кучево-дожд. 
[Cb calv]
+8.2 +5.6 84 +7  1019.8  -0.7  752  293  +5.4         
09 22.03.19 290 (З) 7-13{16}  10 км    8/8 600 м 
[Sc]
+11 +3.2 59 +9  1018.6  -1  751  290           
12 22.03.19 310 (СЗ) 11-15{21}  20000 м  {ливн. осадки}  6/6 600 м 
[Cu hum]
+11.2 -7.3 27 +9  1019.4  0.8  752  292           
15 22.03.19 310 (СЗ) 10-15{20}  20000 м    ясно 
+8.8 -9.4 27 +6  1021.4  1.8  753  295           
18 22.03.19 300 (СЗ) 4{16}  10 км    ясно 
+5.2 -7.8 38 +4  1023.5  1.8  754  299    +13  0.3     
21 22.03.19 300 (СЗ) 10 км    ясно 
+3 -7.5 46 +1  1023.8  0.2  755  301           
00 23.03.19 320 (СЗ) 10 км    ясно 
+1.4 -6.8 54 -1  1024.5  0.6  755  303           
03 23.03.19 310 (СЗ) 10 км    ясно 
-1.1 -6.5 67 -3  1025.3  0.6  755  306           
06 23.03.19 310 (СЗ) 10 км    ясно 
+1.4 -5.5 60 -1  1026.1  0.9  756  304  -1.4         
09 23.03.19 350 (С) 4{11}  10 км    4/4 1000 м 
[Cu hum]
+5.1 -5.4 47 +3  1025.8  756  300           
12 23.03.19 320 (СЗ) 20000 м    6/5 1000 м верхняя 
[Cu hum|Ci fib]
+7.7 -3.6 45 +6  1025.2  -0.4  756  297           
15 23.03.19 350 (С) 20000 м    3/0 верхняя 
[Ci fib]
+8.1 -3.1 45 +7  1024.2  -1  755  296           
18 23.03.19 тихо ()   10 км    3/0 верхняя 
[Ci fib]
+1.7 -3.1 70 +2  1024.6  755  303    +9.2       
21 23.03.19 190 (Ю) 10 км    ясно 
-1 -3.9 81 1023.9  -0.9  754  306           
00 24.03.19 190 (Ю) 10 км    10/0 средняя 
[Ac und]
+0.6 -3.6 73 +1  1021.5  -2.2  753  303           
03 24.03.19 190 (Ю) 10 км    10/10 600 м 
[Sc]
+2.2 -3.3 67 +2  1018.6  -2.8  751  300           
06 24.03.19 250 (З) 10 км  слаб. ливневой дождь  10/10 600 м кучево-дожд. 
[Cb calv]
+1.9 -0.7 83 +1  1017  -1.6  749  300  -1.5    0.9     
09 24.03.19 340 (С) 10 км    6/4 600 м верхняя 
[Cu hum|Ci fib]
+8.9 +1.9 61 +8  1015.9  -0.6  749  292           
12 24.03.19 310 (СЗ) 5{11}  20000 м    6/3 600 м верхняя 
[Cu hum|Ci fib]
+11.4 -2.9 37 +10  1014.8  -0.9  748  290           
15 24.03.19 330 (СЗ) 4{10}  20000 м    4/3 600 м верхняя 
[Cu hum|Ci fib]
+11.1 -4.7 33 +10  1014  -0.8  748  290           
18 24.03.19 290 (З) 10 км    4/0 верхняя 
[Ci fib]
+6.1 -4.8 45 +6  1015.2  0.8  748  295    +12.9       
21 24.03.19 280 (З) 10 км    ясно 
+2.7 -5 57 +3  1015.4  748  299           
00 25.03.19 тихо ()   10 км    10/0 средняя 
[Ac trans]
-0.3 -4.6 73 -0  1015.1  -0.5  748  302           
03 25.03.19 тихо ()   10 км    4/0 средняя, верхняя 
[Ac trans|Ci fib]
-2.8 -4.4 89 -3  1014.2  -1  747  305           
06 25.03.19 тихо ()   10 км    8/0 верхняя 
[Ci fib]
+2.3 -2.7 69 +2  1013  -0.9  746  299  -4.3         
Время (UTC), дата Ветер
(°,м/с) 
Видим.   Явления Облачность Т
(°С)
Тd
(°С)
f(%) Тe
(°С)
Pmin
(гПа)
dP
(гПа)
Po
(мм)
O2
(г/м3)
Тmin Tmax R s Состояние
почвы

Для получения пояснительной информации подведите курсор к названию столбца.

ПОГОДА в Василевичи - архив

Всё, что Вы хотите узнать о погоде в Василевичи - удобно и подробно!

Выберите нужную дату (начиная с 1 января 2018* года) и нажмите кнопку "Найти".
Будут отображены архивные сводки погоды по пункту Василевичи, начиная с указанной даты.


Отображать данные в формате CSV (для использования в таблицах Excel)


Внимание! Наш архив погоды предназначен исключительно для личного некоммерческого использования в познавательных целях. Если Вам необходимы официальные справки о состоянии погоды (для производственных, юридических, коммерческих и т.п. целей), обращайтесь в органы Росгидромета.

*Примечание: данная дата относится к архиву по метеостанциям СССР (Россия, СНГ, Балтия).
Архив по метеостанциям Зарубежной Европы и Азии (кроме Китая) хранится 10 дней, по другим регионам земного шара (Китай, Африка, Америка, Австралия, Океания) - 1 день.

Василевичи - район местоположения метеостанции


Название, широта, долгота, высота метеостанции:
Василевичи 52.2°ш. 29.8°д. 142 м над ур. моря [Беларусь]

Дополнительная информация

В oтличие oт бoльшинства пoгoдных сайтoв мы публикуем пoдрoбную метеoинфoрмацию в детальнoм прoфессиoнальнoм фoрмате.

Характеристики температуры и влажнoсти вoздуха измеряются на высoте 2 м в тени вдали oт зданий и деревьев.
Скoрoсть ветра измеряется на высoте 10 м (на урoвне рoста челoвека скoрoсть ветра ниже в 1.5-2 раза). Если метеoстанция нахoдится в гoрoде или в лесу, тo скoрoсть ветра занижена на 2-4 м/с пo сравнению с oткрытым местoм. Скoрoсть ветра над акватoриями крупных рек и oзёр, а также на вершинах хoлмoв на 2-5 м/с выше, чем в oбычных услoвиях.
Атмoсфернoе давление в разных тoчках местнoсти мoжет значительнo oтличаться oт давления на метеoстанции, в зависимoсти oт услoвий рельефа (при пoдъёме на 10 м давление пoнижается примернo на 1 мм рт.ст.).